Regional Weather Roundup
Issued by NWS Newport/Morehead, NC

Current Version | Previous Version | Graphics & Text | Print | Product List | Glossary Off
Versions: 1 2 3 4 5 6 7 8 9 10 11 12 13 14 15 16 17 18 19 20 21 22 23 24 25 26 27 28 29 30 31 32 33 34 35 36 37 38 39 40 41 42 43 44 45 46 47 48 49 50

760
ASUS42 KMHX 241325
RWRMHX
WEATHER ROUNDUP FOR EASTERN NORTH CAROLINA
NATIONAL WEATHER SERVICE NEWPORT/MOREHEAD CITY NC
900 AM EDT SAT SEP 24 2016

NOTE: "FAIR" INDICATES FEW OR NO CLOUDS BELOW 12,000 FEET
WITH NO SIGNIFICANT WEATHER AND/OR OBSTRUCTIONS TO VISIBILITY

NCZ015>017-031-032-045>047-102-103-241400-
NORTH COAST

CITY           SKY/WX    TMP DP  RH WIND       PRES   REMARKS
EDENTON        CLOUDY    73  73 100 W3        30.06R FOG
ELIZABETH CITY CLOUDY    70  70 100 W6        30.05R FOG
KITTY HAWK     NOT AVBL
MANTEO         SUNNY     75  71  85 N8        30.04S

$$

NCZ045>047-081-094-103-104-241400-
CENTRAL COAST

CITY           SKY/WX    TMP DP  RH WIND       PRES   REMARKS
FRISCO         MOSUNNY   79  69  71 VRB5      30.04R

$$

NCZ095-097-098-100-101-241400-
SOUTHERN COAST

CITY           SKY/WX    TMP DP  RH WIND       PRES   REMARKS
BEAUFORT       SUNNY     78  72  81 N9        30.04R
CEDAR ISLAND   NOT AVBL
JACKSONVILLE   CLOUDY    72  71  97 CALM      30.05R FOG
PINEY ISLAND   SUNNY    N/A N/A N/A N9        30.04R
WILMINGTON     CLOUDY    73  73 100 NE7       30.05S FOG


$$

NCZ011>013-027>030-043-044-078>080-089-090>093-098-241400-
COASTAL PLAIN

CITY           SKY/WX    TMP DP  RH WIND       PRES   REMARKS
AHOSKIE        SUNNY     72  70  95 CALM      30.05S
CLINTON        SUNNY     73  71  94 CALM      30.08R
ELIZABETHTOWN  MOSUNNY   73  72  94 CALM      30.07R
GOLDSBORO      SUNNY     72  72 100 NW1       30.05R
GREENVILLE     SUNNY     70  70 100 CALM      30.07S
HAVELOCK       SUNNY     77  73  87 N7        30.06R
KENANSVILLE    SUNNY     72  70  94 CALM      30.07R
KINSTON        FOG       70  70 100 CALM      30.07R VSB<1/4
NEW BERN       SUNNY     74  71  91 N3        30.06S
RICHLANDS      SUNNY     75  72  90 NW3       30.06R
ROCKY MOUNT    SUNNY     72  71  97 CALM      30.06S
WASHINGTON     FOG       70  69  99 CALM      30.06S VSB 1/4
WHITEVILLE     SUNNY     74  71  89 CALM      30.06S

$$

AMZ130-135-150-152-154-156-158-170-250-252-270-ANZ085-086-088-633-658-670-241400-
MARINE OBSERVATIONS

STATION/POSITION TIME  TEMP    WIND        PRES    WAVE   SWELL
                       AIR SEA DIR/SP/G            HT/PER HT/PER
                 (UTC) (F)     (DEG/KT/KT) (MB)    (FT/S) (FT/S)
CHESAPEAKE LIGHT NOT AVBL
64 E VA BEACH    1250   75 76  330/  6/  8 1016.3    3/11   3/11
DUCK             1300   73 77  320/  8/  9 1016.5
2 E DUCK         1241      76                N/A     3/11   2/11
OREGON INLET     1300   76 79  360/  8/ 10 1016.9
13E OREGON INLT  1230      77                N/A     4/11   3/11
HATTERAS CG      1300   76 81   10/ 10/ 13 1016.8
DIAMOND BUOY     1250   77 81   20/ 12/ 14 1016.5    5/11   5/11
CAPE LOOKOUT     1300   78     360/  9/ 12 1016.8
BEAUFORT LAB     1300   76 79   10/  7/ 10 1016.7
30 SE NEW RVR IN 1308   79 82   30/ 12/ 14 1016.9
30 SE NEW RVR IN 1225      82                N/A     4/10   2/11
27 SE WRIGHTSVLE 1308   80 81   30/ 12/ 14 1017.1
5 SE WRIGHTSVLE  1208   77 81   10/ 12/ 14 1018.0
225 S CAPE HAT   1250   81 83  280/  6/  8 1016.2    5/11   5/11
41 SE CHARLESTON 1250   80 82   10/  6/  8 1016.1    3/11   2/11

$$




USA.gov is the U.S. government's official web portal to all federal, state and local government web resources and services.